| time (UTC) | temp F | wind direction | speed MPH | gust MPH | rain 1hr in | rain 24hr in | rain mn in | humidity % | barometer mb |
| 20260504081524 | 76 | 200 | 1.0 | 6.0 | 0.00 | 0.00 | 0.00 | 44 | 1013.0 |
| 20260504050020 | 69 | 12 | 6.0 | 11.0 | 0.00 | 0.00 | 0.00 | 56 | 1013.2 |
| 20260504044525 | 68 | 36 | 1.0 | 7.0 | 0.00 | 0.00 | 0.00 | 62 | 1014.0 |
| 20260504043014 | 69 | 250 | 5.0 | 8.0 | 0.00 | 0.00 | 0.00 | 58 | 1014.6 |
| 20260504041522 | 69 | 299 | 1.0 | 3.0 | 0.00 | 0.00 | 0.00 | 58 | 1013.5 |
| 20260504040022 | 68 | 160 | 0.0 | 4.0 | 0.00 | 0.00 | 0.00 | 58 | 1013.5 |
| 20260504034531 | 68 | 352 | 2.0 | 5.0 | 0.00 | 0.00 | 0.00 | 58 | 1013.2 |
| 20260504033021 | 69 | 325 | 1.0 | 5.0 | 0.00 | 0.00 | 0.00 | 55 | 1013.5 |
| 20260504031517 | 69 | 335 | 3.0 | 9.0 | 0.00 | 0.00 | 0.00 | 54 | 1013.1 |
| 20260504030037 | 68 | 86 | 3.0 | 9.0 | 0.00 | 0.00 | 0.00 | 56 | 1012.8 |
| 20260504024522 | 67 | 5 | 2.0 | 9.0 | 0.00 | 0.00 | 0.00 | 61 | 1013.2 |
| 20260504023010 | 69 | 273 | 2.0 | 9.0 | 0.00 | 0.00 | 0.00 | 55 | 1013.0 |
| 20260504021514 | 69 | 279 | 6.0 | 9.0 | 0.00 | 0.00 | 0.00 | 54 | 1012.7 |
| 20260504020020 | 69 | 13 | 3.0 | 11.0 | 0.00 | 0.00 | 0.00 | 53 | 1011.8 |
| 20260504014511 | 68 | 315 | 5.0 | 11.0 | 0.00 | 0.00 | 0.00 | 57 | 1012.4 |
| 20260504013008 | 68 | 329 | 2.0 | 5.0 | 0.00 | 0.00 | 0.00 | 60 | 1012.3 |
| 20260504011511 | 69 | 323 | 3.0 | 9.0 | 0.00 | 0.00 | 0.00 | 57 | 1012.4 |
| 20260504010020 | 69 | 275 | 0.0 | 4.0 | 0.00 | 0.00 | 0.00 | 56 | 1011.7 |
| 20260504004522 | 70 | 352 | 1.0 | 4.0 | 0.00 | 0.00 | 0.00 | 53 | 1011.1 |
| 20260504003010 | 71 | 360 | 1.0 | 7.0 | 0.00 | 0.00 | 0.00 | 52 | 1011.0 |
| 20260504001507 | 71 | 352 | 3.0 | 9.0 | 0.00 | 0.00 | 0.00 | 49 | 1010.8 |
| 20260504000013 | 71 | 57 | 3.0 | 9.0 | 0.00 | 0.00 | 0.00 | 50 | 1010.8 |
| 20260503234529 | 72 | 295 | 2.0 | 4.0 | 0.00 | 0.00 | 0.00 | 46 | 1011.6 |
| 20260503233021 | 73 | 311 | 1.0 | 6.0 | 0.00 | 0.00 | 0.00 | 47 | 1010.9 |
| 20260503231512 | 72 | 294 | 2.0 | 8.0 | 0.00 | 0.00 | 0.00 | 46 | 1010.8 |
| 20260503230012 | 73 | 327 | 2.0 | 6.0 | 0.00 | 0.00 | 0.00 | 46 | 1010.8 |
| 20260503224517 | 74 | 51 | 1.0 | 4.0 | 0.00 | 0.00 | 0.00 | 44 | 1010.9 |
| 20260503223018 | 74 | 113 | 2.0 | 8.0 | 0.00 | 0.00 | 0.00 | 44 | 1011.3 |
| 20260503221524 | 74 | 117 | 5.0 | 12.0 | 0.00 | 0.00 | 0.00 | 45 | 1011.3 |
| 20260503220007 | 74 | 171 | 4.0 | 11.0 | 0.00 | 0.00 | 0.00 | 44 | 1011.7 |
| 20260503214514 | 73 | 186 | 6.0 | 16.0 | 0.00 | 0.00 | 0.00 | 50 | 1012.5 |
| 20260503213018 | 72 | 162 | 8.0 | 13.0 | 0.00 | 0.00 | 0.00 | 56 | 1012.7 |
| 20260503211520 | 72 | 293 | 3.0 | 9.0 | 0.00 | 0.00 | 0.00 | 52 | 1011.8 |
| 20260503210028 | 73 | 345 | 1.0 | 8.0 | 0.00 | 0.00 | 0.00 | 51 | 1011.4 |
| 20260503204512 | 74 | 305 | 0.0 | 9.0 | 0.00 | 0.00 | 0.00 | 48 | 1010.6 |
| 20260503203021 | 73 | 82 | 2.0 | 8.0 | 0.00 | 0.00 | 0.00 | 48 | 1010.7 |
| 20260503201518 | 73 | 78 | 6.0 | 8.0 | 0.00 | 0.00 | 0.00 | 51 | 1011.1 |
| 20260503200024 | 75 | 92 | 2.0 | 30.0 | 0.00 | 0.00 | 0.00 | 43 | 1012.2 |
| 20260503194527 | 79 | 182 | 2.0 | 12.0 | 0.00 | 0.00 | 0.00 | 34 | 1011.7 |
| 20260503193034 | 79 | 146 | 5.0 | 11.0 | 0.00 | 0.00 | 0.00 | 33 | 1011.0 |
| 20260503191516 | 79 | 121 | 6.0 | 15.0 | 0.00 | 0.00 | 0.00 | 35 | 1011.1 |
| 20260503190019 | 79 | 154 | 6.0 | 9.0 | 0.00 | 0.00 | 0.00 | 32 | 1011.2 |
| 20260503184534 | 79 | 150 | 6.0 | 10.0 | 0.00 | 0.00 | 0.00 | 36 | 1011.7 |
| 20260503183029 | 79 | 238 | 0.0 | 2.0 | 0.00 | 0.00 | 0.00 | 36 | 1012.1 |
| 20260503181528 | 79 | 86 | 0.0 | 3.0 | 0.00 | 0.00 | 0.00 | 36 | 1011.7 |
| 20260503180024 | 79 | 100 | 1.0 | 6.0 | 0.00 | 0.00 | 0.00 | 36 | 1011.5 |
| 20260503174530 | 78 | 129 | 1.0 | 5.0 | 0.00 | 0.00 | 0.00 | 37 | 1011.7 |
| 20260503173035 | 78 | 207 | 3.0 | 6.0 | 0.00 | 0.00 | 0.00 | 37 | 1011.6 |
| 20260503171516 | 78 | 202 | 2.0 | 14.0 | 0.00 | 0.00 | 0.00 | 39 | 1011.1 |